Location: Acres Farm
(34.8145°N, 90.2815°W)
Time: 05:12:46
(UTC+00:00)

Envisat - Visible Passes

Search period start: 11 October 2024 00:00
Search period end: 21 October 2024 00:00
Orbit: 762 x 764 km, 98.3° (Epoch: 10 October)

Date Brightness Start Highest point End Pass type
(mag) Time Alt. Az. Time Alt. Az. Time Alt. Az.
11 Oct 5.4 09:28:25 10° N 09:28:59 13° N 09:28:59 13° N visible
12 Oct 5.8 08:50:54 10° NNE 08:50:56 10° NNE 08:50:56 10° NNE visible
13 Oct 5.4 09:52:46 10° N 09:53:00 11° N 09:53:00 11° N visible
14 Oct 5.6 09:14:49 10° N 09:14:56 11° N 09:14:56 11° N visible
